Regional Weather Roundup
Issued by NWS

Home | Current Version | Previous Version | Graphics & Text | Print | Product List | Glossary On
Versions: 1 2 3 4 5 6 7 8 9 10 11 12 13 14 15 16 17 18 19 20 21 22 23 24 25 26 27 28 29 30 31 32 33 34 35 36 37 38 39 40 41 42 43 44 45 46 47 48 49 50
514
ASUS43 KBIS 060210
RWRND

NORTH DAKOTA REGIONAL WEATHER ROUNDUP
NATIONAL WEATHER SERVICE BISMARCK ND
900 PM CDT THU MAY 05 2016

NOTE: "FAIR" INDICATES FEW OR NO CLOUDS BELOW 12,000 FEET WITH NO
SIGNIFICANT WEATHER AND/OR OBSTRUCTIONS TO VISIBILITY.


NDZ001>003-009>011-017-060300-
NORTHWEST NORTH DAKOTA

CITY           SKY/WX    TMP DP  RH WIND       PRES   REMARKS
WILLISTON      PTCLDY    72  44  36 W8        29.74R HAZE
MINOT          CLOUDY    82  41  23 SW7       29.72S
MINOT AFB      CLOUDY    78  41  26 SW8       29.70F
$$

NDZ018>021-031>035-040>046-060300-
SOUTHWEST NORTH DAKOTA

CITY           SKY/WX    TMP DP  RH WIND       PRES   REMARKS
BISMARCK       CLOUDY    69  49  48 S5        29.77S
DICKINSON      CLOUDY    78  31  17 S3        29.79S
GARRISON         N/A     74  41  30 S3        29.75S
HETTINGER ARPT CLOUDY    72  51  47 S3        29.84R
$$

NDZ004>008-012>016-024-026-027-054-060300-
NORTHEAST NORTH DAKOTA

CITY           SKY/WX    TMP DP  RH WIND       PRES   REMARKS
GRAND FORKS    PTCLDY    74  36  25 SW7       29.71S
GRND FRKS AFB  CLEAR     72  39  30 SW7       29.72S
DEVILS LAKE    CLOUDY    75  42  30 S8        29.74S
$$

NDZ022-023-025-028>030-036>039-047>053-060300-
SOUTHEAST NORTH DAKOTA

CITY           SKY/WX    TMP DP  RH WIND       PRES   REMARKS
FARGO          CLEAR     77  39  25 SW12      29.75S
JAMESTOWN      CLEAR     76  43  30 SW6       29.76S
$$





USA.gov is the U.S. government's official web portal to all federal, state and local government web resources and services.